Other Public Products
Issued by NWS Grand Forks, ND

Home | Current Version | Previous Version | Graphics & Text | Print | Product List | Glossary On
Versions: 1 2 3 4 5 6 7 8 9 10 11 12 13 14 15 16 17 18 19 20 21 22 23 24 25 26 27 28 29 30 31 32 33 34 35 36 37 38 39 40 41 42 43 44 45 46 47 48 49 50
000
FPUS83 KFGF 290410
OPUFGF
PRAIRIE TO PINES WEATHER ROUNDUP
NATIONAL WEATHER SERVICE EASTERN NORTH DAKOTA/GRAND FORKS ND
1100 PM CDT THU MAY 28 2015

 **SATELLITE DATA USED TO AUGMENT SKY COVER AT AUTOMATED STATIONS**
 *****  WEATHER ACROSS EASTERN NORTH DAKOTA  *****

CITY           SKY/WX    TMP DP  RH WIND       PRES   REMARKS
GRAND FORKS    CLOUDY    63  61  93 N8        29.83R
GRAND FORKS AF CLOUDY    64  62  93 N16       29.85R
GRAND CITY NWS   N/A     61 N/A N/A N5          N/A
BUXTON         NOT AVBL
DEVILS LAKE    MOCLDY    64  54  68 N14       29.89R
FARGO          LGT RAIN  64  61  90 S8        29.84R
WAHPETON ARPT  CLOUDY    61  59  94 S7        29.90R
$$

 *****  WEATHER ACROSS CENTRAL AND WESTERN NORTH DAKOTA  *****

CITY           SKY/WX    TMP DP  RH WIND       PRES   REMARKS
JAMESTOWN      CLOUDY    66  58  75 N14       29.85R
BISMARCK       CLOUDY    66  56  70 N13G18    29.92R
MINOT          CLOUDY    52  46  80 NW22G32   30.01R
MINOT AFB      CLOUDY    53  53 100 N16G29    30.02R
GARRISON         N/A     60  53  77 N14G25    29.96R
WILLISTON      CLOUDY    52  43  71 N24G32    30.11R
DICKINSON      CLOUDY    61  53  75 N18       29.98R
HETTINGER      LGT RAIN  54  51  90 NW8       29.98R
$$

 *****  OTHER OBSERVATIONS NORTHEAST NORTH DAKOTA  *****

CITY           SKY/WX    TMP DP  RH WIND       PRES   REMARKS
WALHALLA         N/A     59  59 100 MISG      29.91R
LANGDON        MOCLDY    59  57  94 N12       29.92R
CAVALIER       NOT AVBL
GRAFTON        MOCLDY    61  61 100 N12       29.88R
CANDO          CLOUDY    61  55  82 N9        29.93R
FORT TOTTEN      N/A     63  54  72 N5        29.95
ROLLA          CLOUDY    50  50 100 N25       29.98R
RUGBY          NOT AVBL
 ***** THE ABOVE OBSERVATIONS ARE NON NWS ARE NOT QUALITY
        CONTROLLED AND MAY MIS-REPORT RAIN FOR SNOW...
$$

 *****  OTHER OBSERVATIONS SOUTHEAST NORTH DAKOTA *****

CITY           SKY/WX    TMP DP  RH WIND       PRES   REMARKS
COOPERSTOWN    NOT AVBL
VALLEY CITY    CLOUDY    64  64 100 S10       29.86R
OAKES          LGT RAIN  61  61 100 SE7       29.84F
GWINNER        NOT AVBL
SHEYENNE NWR     N/A     62  62  98 S7        29.95S
BUFFALO        NOT AVBL
WYNDMERE         N/A     63  64 100 SW9         N/A
 ***** THE ABOVE OBSERVATIONS ARE NON NWS ARE NOT QUALITY
       CONTROLLED AND MAY MIS-REPORT RAIN FOR SNOW...
$$

  *****  WEATHER ACROSS NORTHERN MINNESOTA  *****

CITY           SKY/WX    TMP DP  RH WIND       PRES   REMARKS
FLAG ISLAND    LGT RAIN  59  57  94 CALM      29.82F
WARROAD        LGT RAIN  61  55  82 NW6       29.85R
ROSEAU         DRIZZLE   63  57  82 CALM      29.84S
HALLOCK        CLOUDY    63  59  88 N16       29.87R
THF RVR FALLS  CLOUDY    64  63  94 CALM      29.84S
HALSTAD        NOT AVBL
FOSSTON        CLOUDY    61  59  94 SE6       29.86S
BAUDETTE       CLOUDY    60  58  92 SW8       29.82R
WASKISH        LGT RAIN  61  59  94 SE7       29.86S
CROOKSTON      CLOUDY    66  63  88 N3        29.84R
$$
  *****  WEATHER ACROSS CENTRAL AND WEST MINNESOTA  *****

CITY           SKY/WX    TMP DP  RH WIND       PRES   REMARKS
BEMIDJI        LGT RAIN  61  60  96 CALM      29.87R
PARK RAPIDS    LGT RAIN  63  60  90 NW7       29.87F
WADENA         HVY RAIN  63  61  94 N6        29.89R
DETROIT LAKES  RAIN      61  59  94 S9        29.89S
MOORHEAD       LGT RAIN  63  61  94 S10       29.85R
FERGUS FALLS   TSTM      61  61 100 N3        29.90R
ELBOW LAKE     TSTM      61  60  96 N8G23     29.92R
MORRIS MN      CLOUDY    72  57  60 W10       29.87R
STAPLES        CLOUDY    72  50  46 S5        29.87S
WHEATON        CLOUDY    61  59  94 NW13G24   29.92R
$$
  *****  WEATHER ELSEWHERE ACROSS MINNESOTA  *****

CITY           SKY/WX    TMP DP  RH WIND       PRES   REMARKS
DULUTH         CLOUDY    45  42  89 E10       29.95S
INTRNTL FALLS  LGT RAIN  59  58  96 S7        29.85F
ELY            NOT AVBL
CLOQUET        CLOUDY    43  43 100 E5        29.94F FOG
BRAINERD       MOCLDY    70  52  52 S10       29.88R
HIBBING        CLOUDY    57  48  72 SE6       29.89F
ALEXANDRIA     CLOUDY    72  57  59 S22G31    29.88R
SAINT CLOUD    MOCLDY    70  55  59 S8        29.91R
MINNEAPOLIS    CLOUDY    75  53  46 S9        29.94R
$$

  *****  WEATHER ACROSS SOUTH DAKOTA  *****

CITY           SKY/WX    TMP DP  RH WIND       PRES   REMARKS
SIOUX FALLS    CLOUDY    67  61  81 S9        29.89S
BROOKINGS      MOCLDY    66  55  68 S14       29.90R
WATERTOWN      MOCLDY    67  57  70 S9        29.87R
HURON            N/A    N/A N/A N/A MISG      29.86R
SISSETON         N/A     61  60  97 N12G26    29.89R
ABERDEEN       CLOUDY    63  59  87 E10       29.86F
MITCHELL       CLOUDY    71  63  75 SE13      29.85R
PIERRE         CLOUDY    61  58  90 W7        29.87R
MOBRIDGE       CLOUDY    65  62  90 NW9       29.86R
RAPID CITY     CLOUDY    57  49  74 NW15      29.97R
$$

  *****  SOME WEATHER IN NEARBY STATES *****

CITY           SKY/WX    TMP DP  RH WIND       PRES   REMARKS
GLASGOW MT     CLOUDY    52  42  69 N15       30.19R
GREAT FALLS MT LGT RAIN  46  45  96 N14       30.31R FOG
CHEYENNE WY    CLOUDY    54  37  52 N6        30.16R
SCOTTSBLUFF NE CLOUDY    57  50  77 NE18      30.04F
OMAHA NE       CLOUDY    68  64  87 S9        29.94S
DES MOINES IA  MOCLDY    67  63  87 SE6       29.97S
DAVENPORT IA   PTCLDY    68  59  73 SW5       30.03S
CHICAGO IL     MOCLDY    67  54  63 E6        30.06F
EAU CLAIRE WI  MOCLDY    70  54  56 SE7       29.98R
LA CROSSE WI   CLOUDY    72  55  55 S7        29.98R
$$

  *****  SOME NATIONAL WEATHER *****

CITY           SKY/WX    TMP DP  RH WIND       PRES   REMARKS
LA GUARDIA NY  PTCLDY    70  56  61 NE8       30.23R
RALEIGH NC     MOCLDY    73  69  87 SW3       30.22S
ATLANTA GA     CLOUDY    71  66  84 CALM      30.21F
NEW ORLEANS LA PTCLDY    78  72  81 S9        30.07S
OKLAHOMA CITY  TSTM      67  61  81 SE13      29.96R
ALBUQUERQUE NM CLEAR     75  29  18 N9        30.04R
SALT LAKE CITY PTCLDY    62  46  55 N6        30.12R
LOS ANGELES CA CLOUDY    59  56  89 W8        29.95R
BOISE ID       CLEAR     72  41  32 CALM      30.04R
SEATTLE WA     PTCLDY    74  51  44 N9        30.00S
$$

*** WEATHER ACROSS MANITOBA...SASKATCHEWAN AND ONTARIO ***
                ***ONTARIO***

CITY           SKY/WX    TMP DP  RH WIND       PRES   REMARKS
GERALDTON      MOCLDY    54  50  87 S5        29.92F
THUNDER BAY    CLOUDY    46  46 100 E5        29.95F FOG
SIOUX LOOKOUT  LGT RAIN  55  54  94 CALM      29.85F
TORONTO        CLEAR     66  54  63 SE3       30.26S
BIG TROUT LK   LGT RAIN  41  41 100 E8G18     30.03F
PICKLE LAKE    NOT AVBL
DRYDEN         CLOUDY    57  55  94 W2        29.84F FOG
KENORA         LGT RAIN  57  57 100 E3        29.85S VSB 3/4
$$
                *** MANITOBA***

CITY           SKY/WX    TMP DP  RH WIND       PRES   REMARKS
BRANDON        CLOUDY    48  41  76 N26G32    30.05R
DAUPHIN        CLOUDY    46  43  87 N16       30.12R
ISLAND LAKE    LGT RAIN  43  41  93 N6        29.95R
PILOT MOUND      N/A     52  46  82 N21G33      N/A
THE PAS        MOCLDY    39  32  75 N17G28    30.24R
THOMPSON       LGT SNOW  30  27  86 NE13      30.25S WCI  20
WINNIPEG       CLOUDY    54  48  82 N22G31    29.94R
LYNN LAKE      FLURRIES  30  25  80 N9        30.35R WCI  22
CHURCHILL      CLOUDY    28  23  80 NE9       30.41S WCI  20
GILLAM         FRZ DRZL  28  27  93 NE17G26   30.25R VSB 5/8 WCI  16
$$
                ***SASKATCHEWAN***

CITY           SKY/WX    TMP DP  RH WIND       PRES   REMARKS
ESTEVAN        CLOUDY    48  41  76 N21G30    30.13R
KINDERSLEY     PTCLDY    45  30  57 N8        30.31R
LLOYDMINSTER   CLEAR     41  27  56 NE7       30.33R
PRINCE ALBERT  PTCLDY    41  28  60 N8        30.32R
REGINA         CLEAR     43  32  65 NE9       30.22R


USA.gov is the U.S. government's official web portal to all federal, state and local government web resources and services.